Location: Rumah Dana
(3.1167°N, 113.0167°E)
Time: 03:54:08
(UTC+00:00)

Resurs 01 Rocket - Pass Details

Date: 20 January 2026
Orbit: 627 x 635 km, 97.7° (Epoch: 11 February)

Event Time Altitude Azimuth Distance (km) Brightness Sun altitude
Rises 11:38:35 0° 160° (SSE) 2,912 5.0 -15.1°
Reaches altitude 10° 11:40:49 10° 156° (SSE) 2,002 4.1 -15.6°
Maximum altitude 11:45:05 54° 78° (ENE) 760 1.6 -16.6°
Drops below altitude 10° 11:49:19 10° 1° (N) 1,993 4.0 -17.6°
Sets 11:51:32 0° 357° (N) 2,898 4.8 -18.1°
